Date String (YYYY-MM-DD hh:mm:ss) UTC,Instrument flags,Ambient pressure (hPa),Sample flow (lpm),Bypass flow (lpm),Sample temperature (°C),Ambient temperature (°C),ASC tube jacket temperature (°C),LED temperature (°C),Box temperature (°C),Sample RH (%),Span deviation,Mass concentration (μg/m³),Mass concentration (μg/m³),Mass concentration (μg/m³)
DateTimeUTC,F1_M11,P_M11,Q1_M11,Q2_M11,T1_M11,T2_M11,T3_M11,T4_M11,T5_M11,U1_M11,ZSPAN_M11,X0_M11,X2_M11,X1_M11
2023-05-03 11:00:00,,0828.5,5.00,0.00,28.4,26.7,00.0,36.8,29.8,16.9,0000.0,0010.49,0004.60,0003.41
2023-05-03 11:01:00,,0828.4,5.01,0.00,28.4,26.6,00.0,36.8,29.8,16.8,0000.0,0010.85,0004.58,0003.39
2023-05-03 11:02:00,,0828.4,5.00,0.00,28.4,26.6,00.0,36.8,29.8,16.8,0000.0,0010.96,0004.61,0003.40
2023-05-03 11:03:00,,0828.4,4.99,0.00,28.4,26.7,00.0,36.8,29.8,16.9,0000.0,0011.54,0004.64,0003.38
2023-05-03 11:04:00,,0828.4,4.99,0.00,28.4,26.6,00.0,36.8,29.8,17.0,0000.0,0011.61,0004.63,0003.39
2023-05-03 11:05:00,,0828.4,5.00,0.00,28.4,26.6,00.0,36.8,29.8,17.0,0000.0,0011.56,0004.66,0003.40
2023-05-03 11:06:00,,0828.4,5.00,0.00,28.4,26.6,00.0,36.8,29.7,17.0,0000.0,0011.75,0004.74,0003.41
2023-05-03 11:07:00,,0828.4,5.00,0.00,28.4,26.6,00.0,36.8,29.8,16.9,0000.0,0011.81,0004.78,0003.42
2023-05-03 11:08:00,,0828.4,5.00,0.00,28.4,26.6,00.0,36.8,29.8,16.9,0000.0,0011.64,0004.82,0003.43
2023-05-03 11:09:00,,0828.4,5.00,0.00,28.4,26.6,00.0,36.8,29.8,16.9,0000.0,0011.74,0004.88,0003.44
2023-05-03 11:10:00,,0828.4,5.00,0.00,28.4,26.6,00.0,36.8,29.7,16.9,0000.0,0011.55,0004.92,0003.45
2023-05-03 11:11:00,,0828.4,5.00,0.00,28.4,26.6,00.0,36.8,29.8,17.0,0000.0,0011.13,0004.94,0003.45
2023-05-03 11:12:00,,0828.4,5.00,0.00,28.4,26.6,00.0,36.8,29.8,17.0,0000.0,0010.69,0004.95,0003.45
2023-05-03 11:13:00,,0828.4,5.00,0.00,28.4,26.6,00.0,36.8,29.7,17.0,0000.0,0010.72,0004.96,0003.47
2023-05-03 11:14:00,,0828.4,5.00,0.00,28.4,26.6,00.0,36.8,29.7,16.8,0000.0,0010.25,0004.94,0003.48
2023-05-03 11:15:00,,0828.4,5.00,0.00,28.3,26.6,00.0,36.8,29.8,16.9,0000.0,0010.67,0004.92,0003.47
2023-05-03 11:16:00,,0828.4,5.00,0.00,28.3,26.6,00.0,36.8,29.8,16.9,0000.0,0010.98,0004.93,0003.48
2023-05-03 11:17:00,,0828.4,5.00,0.00,28.3,26.7,00.0,36.8,29.7,16.8,0000.0,0011.23,0004.87,0003.48
2023-05-03 11:18:00,,0828.4,5.00,0.00,28.3,26.6,00.0,36.7,29.7,16.8,0000.0,0011.59,0004.89,0003.49
2023-05-03 11:19:00,,0828.4,5.00,0.00,28.3,26.6,00.0,36.7,29.7,16.8,0000.0,0011.50,0004.87,0003.48
2023-05-03 11:20:00,,0828.4,5.00,0.00,28.3,26.6,00.0,36.7,29.7,16.8,0000.0,0011.37,0004.83,0003.47
2023-05-03 11:21:00,,0828.4,5.00,0.00,28.3,26.6,00.0,36.7,29.7,17.0,0000.0,0011.33,0004.80,0003.47
2023-05-03 11:22:00,,0828.3,5.00,0.00,28.3,26.6,00.0,36.7,29.7,17.0,0000.0,0011.14,0004.74,0003.47
2023-05-03 11:23:00,,0828.3,5.00,0.00,28.3,26.6,00.0,36.7,29.7,16.7,0000.0,0011.09,0004.74,0003.47
2023-05-03 11:24:00,,0828.3,5.00,0.00,28.3,26.6,00.0,36.7,29.7,16.6,0000.0,0011.05,0004.73,0003.46
2023-05-03 11:25:00,,0828.3,5.01,0.00,28.3,26.5,00.0,36.7,29.7,16.5,0000.0,0011.13,0004.75,0003.45
2023-05-03 11:26:00,,0828.4,5.01,0.00,28.3,26.5,00.0,36.7,29.7,16.5,0000.0,0010.51,0004.79,0003.45
2023-05-03 11:27:00,,0828.4,5.00,0.00,28.3,26.5,00.0,36.7,29.7,16.6,0000.0,0010.12,0004.78,0003.45
2023-05-03 11:28:00,,0828.3,4.99,0.00,28.3,26.5,00.0,36.7,29.7,16.6,0000.0,0009.78,0004.78,0003.44
2023-05-03 11:29:00,,0828.3,4.99,0.00,28.3,26.5,00.0,36.7,29.7,16.6,0000.0,0009.24,0004.70,0003.42
2023-05-03 11:30:00,,0828.3,5.00,0.00,28.3,26.5,00.0,36.7,29.7,16.6,0000.0,0009.26,0004.70,0003.41
2023-05-03 11:31:00,,0828.3,5.00,0.00,28.3,26.5,00.0,36.7,29.6,16.6,0000.0,0009.59,0004.71,0003.40
2023-05-03 11:32:00,,0828.3,5.00,0.00,28.2,26.5,00.0,36.7,29.6,16.6,0000.0,0009.59,0004.72,0003.39
2023-05-03 11:33:00,,0828.4,5.00,0.00,28.2,26.5,00.0,36.7,29.6,16.7,0000.0,0009.66,0004.75,0003.39
2023-05-03 11:34:00,,0828.3,5.00,0.00,28.2,26.5,00.0,36.7,29.6,16.6,0000.0,0009.62,0004.73,0003.39
2023-05-03 11:35:00,,0828.3,5.00,0.00,28.2,26.5,00.0,36.6,29.6,16.7,0000.0,0009.86,0004.79,0003.39
2023-05-03 11:36:00,,0828.4,5.00,0.00,28.2,26.5,00.0,36.6,29.6,16.6,0000.0,0009.82,0004.79,0003.39
2023-05-03 11:37:00,,0828.3,5.00,0.00,28.2,26.5,00.0,36.6,29.6,16.6,0000.0,0010.15,0004.78,0003.38
2023-05-03 11:38:00,,0828.4,5.01,0.00,28.2,26.5,00.0,36.6,29.6,16.7,0000.0,0010.34,0004.73,0003.36
2023-05-03 11:39:00,,0828.4,5.00,0.00,28.2,26.5,00.0,36.6,29.6,16.9,0000.0,0010.96,0004.72,0003.35
2023-05-03 11:40:00,,0828.4,5.00,0.00,28.2,26.5,00.0,36.6,29.7,17.5,0000.0,0011.37,0004.71,0003.36
2023-05-03 11:41:00,,0828.3,5.00,0.00,28.2,26.5,00.0,36.6,29.7,17.6,0000.0,0011.30,0004.68,0003.35
2023-05-03 11:42:00,,0828.3,5.00,0.00,28.1,26.5,00.0,36.6,29.7,17.1,0000.0,0011.02,0004.63,0003.37
2023-05-03 11:43:00,,0828.3,5.01,0.00,28.1,26.5,00.0,36.6,29.7,16.8,0000.0,0010.76,0004.60,0003.36
2023-05-03 11:44:00,,0828.3,5.00,0.00,28.1,26.5,00.0,36.6,29.7,16.8,0000.0,0010.82,0004.59,0003.35
2023-05-03 11:45:00,,0828.4,5.00,0.00,28.1,26.5,00.0,36.6,29.7,16.7,0000.0,0010.90,0004.58,0003.34
2023-05-03 11:46:00,,0828.4,5.00,0.00,28.1,26.5,00.0,36.6,29.7,16.7,0000.0,0010.93,0004.53,0003.34
2023-05-03 11:47:00,,0828.3,4.99,0.00,28.1,26.5,00.0,36.6,29.6,16.6,0000.0,0011.10,0004.58,0003.33
2023-05-03 11:48:00,,0828.3,5.00,0.00,28.1,26.5,00.0,36.6,29.6,16.6,0000.0,0011.05,0004.59,0003.33
2023-05-03 11:49:00,,0828.4,5.00,0.00,28.1,26.5,00.0,36.6,29.6,16.8,0000.0,0010.93,0004.65,0003.34
2023-05-03 11:50:00,,0828.4,4.99,0.00,28.1,26.5,00.0,36.5,29.5,17.0,0000.0,0010.48,0004.68,0003.35
2023-05-03 11:51:00,,0828.4,5.00,0.00,28.1,26.4,00.0,36.5,29.5,17.1,0000.0,0010.11,0004.69,0003.37
2023-05-03 11:52:00,,0828.4,5.00,0.00,28.1,26.4,00.0,36.5,29.5,16.8,0000.0,0010.21,0004.69,0003.36
2023-05-03 11:53:00,,0828.4,5.01,0.00,28.1,26.4,00.0,36.5,29.5,16.7,0000.0,0010.71,0004.70,0003.35
2023-05-03 11:54:00,,0828.4,5.01,0.00,28.1,26.4,00.0,36.5,29.5,16.7,0000.0,0010.74,0004.70,0003.34
2023-05-03 11:55:00,,0828.4,5.01,0.00,28.1,26.4,00.0,36.5,29.5,16.7,0000.0,0010.84,0004.68,0003.35
2023-05-03 11:56:00,,0828.4,5.00,0.00,28.1,26.4,00.0,36.5,29.5,16.7,0000.0,0010.89,0004.69,0003.36
2023-05-03 11:57:00,,0828.4,4.99,0.00,28.1,26.4,00.0,36.5,29.5,16.8,0000.0,0010.65,0004.68,0003.36
2023-05-03 11:58:00,,0828.4,5.00,0.00,28.1,26.4,00.0,36.5,29.5,16.9,0000.0,0010.37,0004.61,0003.36
2023-05-03 11:59:00,,0828.4,5.00,0.00,28.1,26.4,00.0,36.5,29.5,17.0,0000.0,0009.99,0004.59,0003.39
